ONEWEB-0063, 45448

Orbit data source: Space-Track

ONEWEB-0063, 45448 is a payload satellite owned by One Web (UK) in LEO that was launched on Sat, 21 Mar 2020 UTC via a SOYUZ-2-1B launch vehicle from the Tyuratam Missile And Space Complex (TTMTR). Payload-class satellites include a variety of spacecraft equipped with specific instruments for various scientific and technological missions. These include communications satellites like Starlink; space stations such as the ISS; scientific satellites like the Hubble; Earth observation satellites from companies like Planet Labs, Umbra, and HawkEye 360; GPS; miniature CubeSats for education and research; and military/defense satellites.

Loading next visibility...
Identifier
45448, 2020-020AA
Orbit
LEO
Country
Flag of UKUK
Related business
Manufacturer
One Web
Mission
Operational Commercial Communications
Bus & Motor
ARROW, Unknown motor
Mass
148 kg wet, ~140 kg dry
Launch date (UTC)
2020-03-21 (6 years ago)
Launch vehicle
SOYUZ-2-1B
Launch site
Tyuratam Missile And Space Complex (TTMTR)
Object type
Payload
Rocket body
Debris
Shape & HBR
Trap Box + 2 Pan, 6.7 m
Radar Cross Section
3.464 m², Large (>1 m²)

Expand to show TLE details & history
Last TLE update: 10 hours ago

TLE from 10 hours ago
0 ONEWEB-0063
1 45448U 20020AA  26035.03596472  .00000101  00000-0  24872-3 0  9999
2 45448  87.8823  47.5540 0002069  88.4993 271.6372 13.11414470285241
Epoch: 2026-02-04T00:51Z
TLE epoch observation values (Epoch: 2026-02-04T00:51:47.351Z)
Latitude
-0.00003°
Longitude
-99.60161°
Altitude
1,220.537 km
Speed
7.244 km/s
True Right ascension
03h 10m 12s
True Declination
0° 00' 00"
Sunlit
Object was in daylight at epoch
Visualization orbit readout
Latitude
Unknown
Longitude
Unknown
Altitude
Unknown
Speed
Unknown
Apparent Right ascension
Unknown
Apparent Declination
Unknown
Sunlit
N/A
Visualization observer readout
Local Sidereal Time
12:40:12
Azimuth
Unknown
Elevation
Unknown
Doppler factor
Unknown
Orbital elements
Apogee altitude
1,216.382 km
Perigee altitude
1,213.24 km
Semi-major axis
7,592.948 km
Eccentricity
0.00021
Inclination
87.8823°
RAAN
47.554°
Arg. of periapsis
88.4993°
True anomaly
271.6135°
Mean anomaly
271.6372°
Eccentric anomaly
271.62535°
Mean motion
3.28041 °/min
Orbital period
109.74 mins
BSTAR
0.00024872
Loading maneuver chart data...
Computing Atmospheric mass density...
Loading historical data...
Loading historical data...
Loading historical data...
Loading historical data...
Loading historical data...
Loading historical data...
Loading historical data...

Documentation

Showing up to 5 results
|